www.pogodaiklimat.ru

ПОГОДА в Меркьюри, NV

  • Прогноз погоды в Меркьюри
  • Монитор погоды в Меркьюри
  • Климат в Меркьюри

АРХИВ ПОГОДЫ в Меркьюри

Время (UTC), дата Ветер
(напр.,м/с)
 
Видим.   Явления Облачность Т
(С)
Тd
(С)
f
(%)
Тe
(С)
Тes
(С)
Комфортность

P
(гПа)

Po
(гПа)
Тmin
(С)
Tmax
(С)
R
(мм)
SD
(см)
05:56 12.05   16 км    ясно  +13.9  +10.6  80  +14  +14    1010.3  900.3         
06:56 12.05 СВ  16 км    ясно  +14.4  +8.9  70  +14  +14    1010.2  900.6         
07:56 12.05   16 км    ясно  +12.8  +9.4  80  +12  +12    1010.2  900.3         
08:56 12.05 В  16 км    ясно  +13.3  +9.4  77  +12  +12    1010.2  900.3         
09:56 12.05 В  16 км    ясно  +12.2  +8.9  80  +11  +11    1010.4  900.6         
10:56 12.05 В  16 км    ясно  +12.2  +8.3  77  +12  +12    1010.6  900.9  +12.2  +16.7     
11:56 12.05 В  16 км    ясно  +11.7  +8.9  83  +10  +10    1011.2  901.2         
12:56 12.05   16 км    ясно  +14.4  +8.3  67  +14  +14    1011.4  901.5         
19:53 22.05 З  16 км    10/0 2850 м
[средняя] 
+17.8  -3.9  22  +17  +20    1000.0  890.9         
20:18 22.05 ЮВ  16 км  слабый дождь  10/0 2700 м
[средняя] 
+16.1  0.0  33  +14  +14      890.9         
20:53 22.05 Ю  16 км  слабый дождь  8/2 1800 м
[средняя] 
+16.1  -1.1  31  +15  +20    1000.5  890.9         
21:53 22.05 З  16 км  слабый дождь  2/0 3000 м
[средняя] 
+18.3  -1.7  26  +18  +20    999.9  890.6         
22:45 22.05 В  6
{12} 
16 км  слабый дождь  10/5 1650 м
[средняя] 
+14.4  +0.6  39  +13  +13      891.2         
22:53 22.05 ЮВ  4
{9} 
16 км  слабый дождь  10/5 1650 м
[средняя] 
+15.0  -0.6  34  +14  +15    1001.4  891.5  +14.4  +19.4     
23:42 22.05 ЮЗ  10
{14} 
16 км  слабый дождь  10/10 660 м  +10.0  +5.0  71  +5  +5      891.8         
23:53 22.05 ЮЗ  5
{13} 
16 км  слабый дождь  10/8 1440 м
[средняя] 
+10.0  +4.4  68  +7  +7    1002.8  892.1         
00:53 23.05 Ю  16 км  слабый дождь  ясно  +12.2  +3.3  54  +10  +12    1002.6  892.4         
01:53 23.05 СЗ  16 км  слабый дождь  2/2 1950 м  +11.1  +5.0  66  +9  +9    1003.5  893.3      0.5   
02:53 23.05 З  16 км  слабый дождь  10/10 1350 м  +11.1  +5.0  66  +9  +9    1004.5  894.5         
03:53 23.05   16 км  слабый дождь  8/0 2700 м
[средняя] 
+10.0  +6.1  77  +9  +9    1004.4  894.5         
04:53 23.05   16 км  слабый дождь  5/0 2250 м
[средняя] 
+10.0  +6.1  77  +9  +9    1004.6  894.5  +10.0  +15.0  0.5   
05:53 23.05   16 км  слабый дождь  8/0 2250 м
[средняя] 
+10.0  +6.7  80  +9  +9    1004.5  894.5         
06:53 23.05   16 км  слабый дождь  5/5 1170 м  +8.9  +6.7  86  +8  +8    1004.4  894.5         
07:53 23.05 Ю  16 км  слабый дождь  8/8 900 м  +8.9  +6.1  83  +8  +8    1004.4  894.5         
08:53 23.05   16 км  слабый дождь  2/2 1230 м  +8.9  +6.1  83  +8  +8    1004.5  894.5         
09:53 23.05 В  16 км  слабый дождь  ясно  +7.8  +6.1  89  +6  +6    1004.5  894.5         
10:53 23.05   16 км  слабый дождь  ясно  +7.8  +5.6  86  +7  +7    1004.7  894.5  +7.2  +10.0     
11:53 23.05   16 км  слабый дождь  ясно  +7.2  +5.6  90  +6  +6    1005.7  894.8         
12:53 23.05   16 км  слабый дождь  2/2 1800 м  +7.8  +6.7  93  +7  +7    1006.2  895.5         
13:53 23.05 З  16 км  слабый дождь  5/5 960 м  +11.1  +6.7  74  +9  +9    1006.3  895.8         
16:53 23.05 ЮЗ  н/о    н/о  +14.4  +4.4  51  +13  +13    1007.7  897.3  +7.2  +14.4     
17:53 23.05 ЮЗ  7
{12} 
16 км    10/5 1350 м
[средняя] 
+16.1  +3.3  42  +15  +15    1007.7  897.3         
18:53 23.05 ЮЗ  9
{13} 
16 км    8/0 2400 м
[средняя] 
+17.2  +2.8  38  +16  +16    1007.7  897.6         
19:53 23.05 ЮЗ  10
{13} 
16 км    10/0 2100 м
[средняя] 
+16.7  +3.3  41  +15  +15    1008.0  897.6         
20:53 23.05 Ю  8
{11} 
16 км    10/10 1950 м  +16.1  +3.3  42  +14  +14    1008.5  897.9         
21:53 23.05 ЮЗ  9
{11} 
16 км    10/10 1380 м  +16.7  +5.0  46  +15  +15    1008.3  897.9         
22:53 23.05 Ю  7
{12} 
16 км    10/10 1440 м  +16.1  +4.4  46  +15  +15    1008.9  898.2  +14.4  +18.3     
23:53 23.05 ЮЗ  7
{11} 
16 км    8/2 1500 м
[средняя] 
+15.6  +5.0  49  +14  +14    1009.3  898.5         
00:53 24.05 ЮЗ  7
{13} 
16 км    10/0 2250 м
[средняя] 
+15.0  +4.4  49  +13  +13    1009.8  899.1         
01:53 24.05 ЮЗ  4
{10} 
16 км    10/5 1500 м
[средняя] 
+14.4  +5.0  53  +13  +13    1010.8  899.7         
02:53 24.05 ЮЗ  8
{10} 
16 км    2/0 2700 м
[средняя] 
+13.3  +6.1  62  +11  +11    1011.7  900.3         
03:53 24.05 ЮЗ  5
{10} 
16 км    10/8 1650 м
[средняя] 
+13.9  +5.0  55  +12  +12    1012.3  901.2         
04:53 24.05 ЮЗ  16 км    10/10 1800 м  +13.3  +6.1  62  +11  +11    1012.5  901.8  +13.3  +16.7     
05:53 24.05 ЮЗ  16 км    10/10 1440 м  +12.8  +6.7  66  +11  +11    1012.6  901.8         
06:53 24.05 С  16 км    10/10 1140 м  +12.8  +7.2  69  +12  +12    1012.5  901.8         
07:53 24.05 СЗ  16 км    10/0 2250 м
[средняя] 
+12.2  +7.8  74  +10  +10    1012.4  901.5         
08:53 24.05 С  16 км    10/0 2400 м
[средняя] 
+12.2  +7.2  71  +11  +11    1012.3  901.5         
09:53 24.05   16 км    10/8 1950 м
[средняя] 
+11.7  +7.8  77  +11  +11    1012.5  901.8         

 

Местоположение метеостанции Desert Rock Airport: широта 36.6207 долгота -116.0287 высота над уровнем моря 987 м.

В архиве по умолчанию представлена погода в Меркьюри за последние 1-2 суток. Обновление информации о фактической погоде в базе происходит ежечасно! Архивные данные за месяц целиком и за предыдущие месяцы Вы можете получить, выбрав интересующий диапазон дат из раскрывающегося списка и нажав кнопку "Ввод!".

Внимание! Архив погоды МЕТАР в базе сайта хранится не более 60 дней. Нет смысла пытаться выбрать более раннюю дату.

Внимание! Время в таблицах - всемирное. Для получения местного времени необходимо прибавить поправку, которая в Меркьюри равна -8 ч.

Ветер - указаны скорость ветра в м/с и направление, откуда дует ветер: С - северный, СВ - северо-восточный, В - восточный, ЮВ - юго-восточный, Ю - южный, ЮЗ - юго-западный, З - западный, СЗ - северо-западный.
Видимость - горизонтальная дальность видимости в метрах или километрах. При видимости от 1 до 10 км при отсутствии осадков обычно наблюдается дымка, при ухудшении видимости до 1 км и менее - туман. В сухую погоду видимость может ухудшаться дымом, пылью или мглою.
Атмосферные явления - указаны явления, наблюдавшиеся в указанный момент времени.
Облачность - указаны через наклонную черту верхняя и нижняя облачность в баллах и высота нижней границы облаков в метрах. Внимание: облачность, как и прочие метеорологические величины в США измеряются автоматическими метеостанциями. Указанные значения в баллах носят условный характер и показывают процент времени, в течение которого, в среднем, лазерный луч высотомера отражался от облаков обратно.
T - Температура воздуха - температура, измеренная на высоте 2 м над землей.
Td - Температура точки росы - температура, при понижении до которой содержащийся в воздухе водяной пар достигнет насыщения.
f - Относительная влажность воздуха - влажноcть воздуха, измеренная на высоте 2 м над землей.
Te - Эффективная температура - температура, которую ощущает одетый по сезону человек в тени. Характеристика душности погоды. При расчете учитывается влияние влажности воздуха и скорости ветра на теплоощущения человека.
Tes - Эффективная температура на солнце - температура, которую ощущает человек, с поправкой на солнечный нагрев. Характеристика знойности погоды. Зависит от высоты солнца над горизонтом, облачности и скорости ветра. Ночью, в пасмурную погоду, а также при ветре 12 м/с и более поправка равна нулю.
P - Атмосферное давление - приведенное к уровню моря атмосферное давление.
Po - Атмосферное давление - измеренное на уровне метеостанции атмосферное давление.
Tmin - Минимальная температура - минимум температуры воздуха на высоте 2 м над землей.
Tmax - Максимальная температура - максимум температуры воздуха на высоте 2 м над землей.
R - Количество осадков - Количество выпавших осадков за 3 или 6 часов, мм.
SD - Снежный покров - Высота снежного покрова, см.